Temp
10 10 10 10 10 10 10 11 11 11 12 12 13 13 14 14 14 14 14 14 14 14 14 13 13 13 12 12 11 11 11 11 11 10 9 9 9 9 9 9 9 9 9 9 9 9 9 10 10 10 10 10 9 9 9 9 10 10 10 11 11 11 11 11 11 9 8 9 10 9 10 10 10 10 10 10 10 10 10 11 10 10 10 11 10
10 10 10 10 10 10 10 11 11 11 12 12 13 13 14 14 14 14 14 14 14 14 14 13 13 12 12 11 11 11 11 10 9 9 9 10 10 9 9 9 9 9 9 9 9 9 9 9 9 9 9 9 9 9 9 9 10 10 10 10 10 11 11 12 11 9 7 8 9 9 9 9 10 10 10 10 10 10 10 10 10 10 10 10 10
10 10 10 10 10 10 10 11 11 11 11 12 12 13 13 14 14 14 14 14 14 14 13 13 12 12 11 10 10 10 10 9 9 9 10 10 9 9 9 9 10 9 9 9 9 9 9 9 9 9 9 9 9 9 9 10 10 10 10 10 10 11 11 12 12 10 8 8 8 9 9 10 10 11 10 10 10 10 10 10 10 10 10 10 10
9 9 9 9 10 10 10 10 10 11 11 12 12 13 13 13 13 14 14 14 13 13 12 12 12 11 10 9 9 9 9 9 9 9 10 9 9 9 9 9 9 9 9 9 9 9 9 9 9 9 9 9 9 9 10 10 10 10 10 10 10 11 11 11 12 12 10 8 8 9 10 10 10 10 10 9 9 9 9 9 9 9 9 9 9
9 9 9 9 9 9 9 10 10 10 11 12 12 13 13 13 13 13 13 13 13 12 12 11 11 10 9 8 8 8 9 9 10 10 10 9 9 9 9 9 9 9 9 9 9 9 9 9 9 9 9 9 9 9 9 9 10 10 10 10 10 10 11 11 11 11 11 10 9 8 9 9 9 9 9 9 8 8 8 8 9 9 9 9 9
9 9 9 9 9 9 9 9 10 10 11 12 12 12 13 13 13 13 13 13 12 12 11 11 10 9 8 7 7 8 9 10 9 10 10 10 9 9 9 9 9 9 9 9 9 9 9 9 9 9 9 9 9 9 9 9 9 9 9 9 10 10 10 11 11 10 10 10 9 8 8 8 8 8 8 8 8 8 8 8 8 8 8 8 9
8 8 8 8 8 9 9 9 10 10 11 11 12 12 12 12 12 12 12 12 11 11 11 10 9 9 8 8 8 9 9 10 10 10 10 10 10 9 9 9 9 9 9 9 9 9 9 9 9 9 9 9 9 10 9 9 9 9 9 9 9 10 10 10 10 10 10 9 8 8 8 7 7 7 7 7 7 7 7 7 7 7 8 8 9
8 8 8 8 8 8 9 9 10 10 11 11 11 11 12 12 12 12 12 11 11 11 11 10 9 8 9 8 8 9 10 10 10 10 10 10 10 10 9 9 9 9 9 9 9 9 9 8 9 9 9 9 9 10 10 10 9 9 9 9 9 10 10 9 9 9 9 9 8 7 7 6 6 6 6 6 6 6 7 7 7 8 8 8 8
8 7 7 7 8 8 9 9 9 9 10 10 10 11 11 11 11 11 11 11 11 11 11 10 8 8 8 8 9 9 10 10 10 10 10 10 10 10 10 9 9 9 9 9 9 9 9 9 9 9 9 9 9 10 10 10 10 10 9 9 9 9 9 9 9 8 8 8 7 6 6 5 5 5 5 6 6 7 8 7 7 7 7 7 7
7 7 7 7 8 8 8 8 8 8 9 9 10 10 11 11 11 11 11 11 11 11 10 9 8 8 8 8 9 9 10 10 10 10 10 10 10 10 10 10 9 9 9 9 9 9 9 9 9 9 9 9 9 10 10 10 10 11 11 10 10 10 9 9 8 8 8 7 7 6 5 4 5 6 6 7 7 7 7 6 6 6 6 6 6
7 7 7 7 8 8 8 8 8 8 8 9 9 10 10 11 10 10 11 11 11 11 9 8 8 7 7 7 8 9 10 10 10 10 10 10 10 10 10 10 10 9 9 9 9 9 9 9 9 9 9 9 9 9 10 10 10 10 10 11 11 11 11 9 8 8 8 7 7 6 6 5 6 7 7 7 7 6 6 6 6 5 5 4 5
7 7 7 7 7 7 7 7 7 8 8 8 9 10 10 10 10 10 10 11 11 10 9 8 7 6 6 7 8 9 9 10 10 10 10 10 10 10 10 10 10 9 9 9 9 9 9 9 9 9 9 9 9 9 10 10 10 10 10 11 11 11 12 11 10 9 9 8 7 7 7 7 7 7 7 7 7 6 6 6 6 5 5 4 4
7 7 7 7 7 7 7 7 7 7 8 8 9 9 9 9 9 10 11 11 10 9 8 8 7 6 6 6 7 8 8 9 9 10 10 10 10 10 10 10 9 9 9 9 9 9 9 8 9 9 9 9 9 9 9 9 9 9 10 10 10 10 10 11 12 12 11 10 8 8 9 8 8 9 9 9 8 6 5 5 5 5 5 5 5
6 6 6 6 7 7 6 6 7 7 7 8 8 8 8 9 10 10 11 10 10 9 9 7 6 6 6 6 6 7 8 8 9 9 10 10 10 9 9 9 9 9 9 9 9 9 8 8 8 9 9 9 9 9 9 9 9 9 9 10 10 10 10 10 11 11 11 11 10 10 10 10 10 10 10 9 8 8 7 6 6 5 5 5 5
6 6 6 6 6 6 6 7 7 7 7 7 7 7 8 8 9 10 10 10 10 10 9 8 7 6 6 6 6 7 8 8 8 9 9 10 10 9 9 9 9 9 9 9 9 9 8 8 8 9 9 9 9 9 9 9 9 9 9 9 9 10 10 10 10 10 10 10 10 10 10 10 10 10 9 9 8 8 8 8 7 6 5 4 4
6 6 6 6 6 6 7 7 7 6 6 6 6 7 7 8 9 10 10 9 9 9 9 9 8 7 6 5 5 6 7 7 8 8 9 10 10 9 9 9 9 9 9 9 9 9 8 8 8 9 9 9 9 9 9 9 9 9 9 9 9 9 9 9 9 9 9 9 9 9 9 9 9 8 8 8 8 7 7 6 6 5 4 3 3
6 6 6 6 6 6 7 7 7 6 6 6 6 7 8 8 9 9 8 8 8 8 9 8 8 8 7 6 5 6 6 7 7 8 9 9 10 9 9 9 9 9 9 9 9 9 8 8 8 8 9 9 9 9 9 9 9 9 9 9 8 9 9 9 9 9 9 9 8 8 8 8 8 8 8 7 7 7 6 5 4 4 3 2 2
6 6 6 7 7 7 7 7 7 6 6 6 7 7 8 8 8 9 8 8 8 8 8 7 7 8 7 7 7 7 7 7 7 7 8 9 9 9 9 9 8 8 8 8 8 8 8 8 8 8 9 9 9 9 9 9 9 9 9 8 8 8 8 9 8 8 8 8 7 8 8 8 7 7 7 7 7 7 6 5 5 4 3 3 2
7 7 7 8 7 8 8 7 7 6 7 7 8 8 8 8 9 8 8 8 8 8 7 6 6 7 7 7 6 6 7 7 6 7 7 8 9 9 9 8 8 8 8 8 8 8 8 8 8 8 8 9 9 9 9 9 9 9 9 8 7 8 9 9 8 8 8 7 7 7 7 7 7 7 7 6 6 6 6 6 5 5 4 4 3
8 7 7 7 7 7 8 7 7 6 7 8 8 9 9 9 8 8 7 7 7 6 6 6 6 6 6 6 5 5 6 6 6 6 6 7 8 9 8 8 8 8 8 8 8 8 8 8 8 8 8 8 8 8 8 8 8 8 8 8 8 8 9 8 8 8 8 8 7 7 7 6 6 6 6 6 5 5 5 5 5 5 5 5 4
7 6 6 6 6 7 7 7 7 7 8 8 8 8 8 8 8 8 7 6 5 5 5 5 5 5 5 5 5 4 5 6 6 5 6 6 7 8 8 8 8 8 8 8 8 8 8 8 8 8 8 8 8 8 8 8 8 8 8 8 9 9 9 8 8 8 7 7 7 6 6 6 6 5 5 5 5 5 5 4 5 5 5 5 4
5 6 6 6 6 6 6 6 7 7 7 7 6 6 7 7 8 7 6 5 5 4 4 4 3 3 3 4 4 4 4 4 5 5 5 6 6 7 8 8 8 8 8 7 7 8 8 8 8 8 8 8 8 8 8 8 8 8 8 8 8 8 8 8 8 7 6 6 6 5 5 5 5 5 5 4 4 4 4 4 4 4 4 4 4
5 5 5 6 6 6 6 6 7 7 7 7 6 6 6 6 6 6 5 5 4 3 3 2 2 1 1 2 3 3 3 3 3 4 4 4 5 6 7 7 7 8 8 7 7 8 8 8 9 9 9 8 8 8 8 8 8 8 8 8 8 8 8 7 7 6 6 5 5 5 5 4 4 4 4 4 4 4 4 4 4 4 3 3 3
4 4 5 5 6 6 6 6 6 6 6 6 6 6 5 5 5 5 5 4 3 2 2 1 0 0 0 1 1 2 2 2 2 3 3 4 5 5 6 6 7 7 7 7 8 8 8 8 8 8 8 8 8 8 8 7 8 8 7 7 7 7 7 7 6 6 5 5 4 4 4 4 4 4 4 4 4 4 3 3 3 3 2 2 2
3 4 4 4 5 6 6 6 6 6 6 5 5 5 5 4 4 4 4 3 3 2 1 0 0 0 0 0 1 1 1 1 1 2 2 3 4 4 5 6 6 6 7 7 7 7 8 8 8 8 8 7 7 7 7 7 7 7 7 7 6 6 6 6 6 5 4 4 4 4 4 4 4 4 4 3 3 3 3 2 2 2 1 1 1
2 3 3 4 4 5 5 5 5 5 5 5 5 5 5 5 4 3 3 2 2 2 2 1 0 0 0 1 1 1 0 0 1 1 2 2 3 4 4 5 5 6 6 6 7 7 7 7 7 7 7 7 6 6 6 6 6 6 6 6 6 6 6 6 5 5 4 4 3 3 3 3 3 3 2 2 2 2 2 2 1 1 1 1 0
-1 1 2 3 4 4 5 5 5 5 4 4 4 5 5 5 4 3 2 2 2 2 2 1 0 0 1 1 1 1 0 -0 -0 0 1 1 2 3 4 4 5 5 5 6 6 6 6 6 6 6 6 6 5 5 5 5 5 5 4 4 5 5 5 5 5 5 4 4 3 3 3 2 2 2 1 1 1 1 1 1 1 0 -0 -0 -0
-3 -1 1 2 3 3 4 5 5 5 4 4 4 4 4 4 3 3 3 3 2 2 2 1 1 1 2 2 1 0 -0 -0 0 1 2 2 2 2 3 4 4 4 5 5 5 5 5 5 5 5 5 4 4 4 4 4 4 4 3 3 3 4 4 4 4 3 3 3 2 2 1 1 1 1 1 1 1 1 1 1 1 0 -0 -1 -1
-4 -3 -1 1 2 3 3 4 4 4 4 4 4 4 5 4 4 4 4 4 5 4 3 3 3 4 4 3 2 1 0 1 4 5 4 3 2 2 2 3 3 4 4 4 4 4 4 4 3 3 3 3 2 2 2 2 2 2 2 2 2 2 2 2 1 1 1 1 0 0 1 1 1 1 0 0 0 1 1 0 -0 -0 -1 -1 -1
-5 -4 -2 -1 1 2 3 3 3 4 4 3 3 3 4 5 5 5 5 5 5 5 5 5 5 6 5 4 4 4 3 4 5 4 2 1 1 1 2 2 3 3 3 3 4 3 3 2 2 2 2 2 1 1 1 1 1 1 1 1 0 0 0 -0 -0 -0 -0 -1 -1 -0 0 1 0 0 -0 -0 -0 -0 -0 -0 -1 -1 -1 -1 -2
-6 -4 -3 -2 -1 0 1 2 3 3 3 3 3 2 3 3 4 4 4 5 5 5 5 5 5 5 5 4 4 4 4 4 4 3 2 1 0 0 1 1 2 2 2 3 3 2 2 2 1 1 1 1 1 1 1 0 0 0 -0 -0 -1 -1 -1 -1 -1 -1 -1 -1 -1 -0 0 0 0 -0 -1 -1 -1 -1 -1 -1 -1 -1 -1 -1 -2
-7 -5 -4 -3 -2 -1 0 1 2 2 2 2 2 2 2 2 2 2 3 3 4 4 4 4 4 4 4 4 4 4 4 4 4 4 3 1 0 0 0 1 1 2 2 2 2 1 1 1 1 1 0 0 0 0 -0 -0 -1 -1 -1 -1 -1 -1 -1 -1 -2 -2 -1 -1 -1 -0 0 0 0 0 -0 -0 -0 -1 -1 -1 -1 -1 -2 -2 -2
-8 -6 -5 -4 -3 -2 -1 0 1 1 2 2 2 2 1 1 1 1 2 2 3 3 3 3 3 3 3 4 4 4 4 4 4 3 3 2 0 0 0 0 1 1 1 1 1 0 0 0 0 0 -0 -0 -0 -0 -1 -1 -1 -1 -2 -1 -1 -1 -1 -1 -2 -2 -1 -1 -1 -0 -0 0 0 -0 -0 -0 -0 -1 -1 -1 -1 -2 -3 -3 -3
-8 -7 -5 -5 -4 -3 -2 -1 0 1 1 1 1 1 1 1 1 1 1 1 1 1 2 2 2 3 3 3 3 3 3 3 3 3 3 2 0 -0 0 0 0 0 0 0 0 0 0 0 -0 -0 -0 -1 -0 -1 -1 -1 -1 -1 -2 -1 -1 -1 -1 -1 -1 -1 -1 -1 -1 -0 -0 -0 -0 -0 -1 -1 -1 -1 -1 -1 -2 -3 -3 -3 -4
-9 -7 -6 -5 -4 -3 -2 -1 -0 0 1 1 1 1 1 1 2 1 1 0 0 0 0 1 1 2 2 2 3 3 3 2 2 2 2 1 0 -0 0 0 -0 0 0 0 0 0 0 -0 -0 -0 -0 -1 -1 -1 -1 -1 -1 -1 -1 -1 -1 -1 -1 -1 -1 -1 -1 -1 -0 -0 -0 -0 -0 -0 -1 -1 -1 -2 -2 -2 -2 -2 -3 -3 -4
-10 -9 -7 -6 -5 -4 -3 -2 -1 -1 0 1 1 1 1 1 1 1 1 1 1 0 0 0 1 1 1 2 2 2 2 2 2 2 2 1 -0 -0 0 -0 -0 0 0 0 0 -0 -0 -0 -0 -0 -0 -0 -1 -1 -1 -1 -1 -1 -1 -1 -1 -1 -1 -1 -1 -1 -1 -1 -0 -0 -0 -0 -0 -0 -1 -1 -1 -1 -1 -1 -1 -2 -3 -3 -4
-11 -10 -8 -7 -6 -5 -3 -2 -1 -1 -0 0 0 0 1 1 1 1 1 0 0 0 -0 -0 -0 -0 0 1 1 1 1 1 1 1 1 0 -0 -0 -0 -0 -0 -0 -0 0 -0 -0 -0 -0 -0 -0 -0 -0 -1 -1 -1 -1 -1 -1 -1 -1 -1 -1 -1 -1 -1 -1 -1 -1 -1 -1 -1 -1 -1 -1 -1 -1 -1 -1 -1 -1 -1 -2 -3 -3 -4
-12 -11 -9 -8 -7 -6 -4 -2 -1 -1 -1 -0 -0 -0 -0 -0 0 0 0 -0 0 0 -0 -1 -1 -1 -1 -0 0 0 0 0 0 -0 -0 -1 -1 -0 -0 -0 -0 -0 -0 -0 -0 -0 -0 -0 -0 -0 -0 -0 -1 -1 -1 -1 -1 -1 -1 -1 -1 -1 -1 -2 -2 -2 -2 -2 -1 -1 -1 -1 -1 -1 -1 -1 -1 -1 -1 -1 -2 -2 -3 -4 -4
-13 -11 -10 -8 -7 -6 -5 -3 -2 -2 -2 -1 -1 -1 -1 -1 -1 -0 -0 -0 -0 -0 -1 -1 -1 -1 -1 -1 -1 -0 -0 -1 -1 -1 -1 -1 -1 -1 -1 -1 -0 -0 -0 -0 -0 -0 -0 -0 -0 -0 -0 -0 -0 -1 -1 -1 -1 -1 -1 -1 -1 -1 -1 -2 -2 -2 -2 -2 -2 -1 -1 -1 -1 -1 -1 -1 -1 -1 -1 -2 -2 -2 -3 -4 -4
-14 -12 -11 -9 -7 -6 -5 -4 -3 -3 -2 -2 -1 -1 -1 -1 -1 -1 -1 -1 -1 -1 -1 -1 -1 -1 -1 -1 -1 -1 -1 -1 -1 -1 -1 -1 -1 -1 -1 -1 -1 -1 -0 -0 -0 -0 -0 -0 -0 -0 -0 -0 -0 -0 -0 -1 -1 -1 -1 -1 -1 -1 -1 -1 -2 -2 -2 -2 -2 -2 -1 -1 -1 -1 -1 -1 -1 -1 -1 -2 -2 -2 -3 -3 -4
-14 -13 -12 -10 -8 -7 -6 -5 -4 -3 -2 -2 -1 -1 -1 -1 -1 -1 -1 -1 -1 -1 -1 -1 -1 -1 -1 -1 -1 -1 -1 -1 -1 -1 -1 -1 -1 -1 -1 -1 -1 -0 -0 -0 -0 -0 -0 -0 -0 -0 -0 -0 -0 -0 -0 -0 -1 -1 -1 -1 -1 -1 -1 -1 -2 -2 -2 -2 -2 -2 -2 -1 -1 -1 -1 -1 -1 -1 -2 -2 -2 -3 -3 -3 -4
-14 -13 -12 -10 -9 -7 -6 -5 -4 -3 -3 -2 -2 -1 -1 -1 -1 -1 -1 -1 -1 -1 -1 -1 -1 -1 -1 -1 -1 -1 -1 -1 -1 -1 -1 -1 -1 -1 -1 -1 -1 -0 -0 -0 -0 -0 -1 -1 -1 -0 -0 -0 -0 -0 -0 -0 -1 -1 -1 -1 -1 -1 -1 -2 -2 -2 -2 -2 -2 -2 -1 -1 -1 -1 -1 -1 -2 -2 -2 -2 -2 -3 -3 -4 -4
-14 -13 -12 -11 -9 -7 -6 -5 -4 -4 -3 -3 -2 -2 -1 -1 -1 -1 -1 -1 -1 -1 -1 -1 -1 -1 -1 -1 -1 -1 -1 -1 -1 -1 -1 -1 -1 -1 -1 -1 -1 -1 -1 -1 -1 -1 -1 -1 -1 -1 -1 -1 -0 -0 -0 -0 -1 -1 -1 -1 -1 -1 -2 -2 -2 -2 -2 -2 -2 -2 -1 -1 -1 -1 -2 -2 -2 -2 -2 -3 -3 -3 -3 -4 -4
-14 -13 -12 -10 -9 -7 -6 -4 -4 -3 -3 -3 -2 -2 -1 -1 -1 -1 -1 -1 -1 -1 -1 -1 -1 -1 -1 -1 -1 -1 -1 -1 -1 -1 -1 -1 -1 -1 -1 -1 -1 -1 -1 -1 -1 -1 -1 -1 -1 -1 -1 -1 -0 -0 -0 -0 -0 -1 -1 -1 -1 -1 -2 -2 -2 -2 -2 -2 -2 -2 -1 -1 -2 -2 -2 -2 -2 -3 -3 -3 -3 -4 -4 -4 -5
-14 -13 -12 -10 -8 -7 -5 -4 -3 -3 -3 -3 -3 -2 -2 -2 -1 -1 -2 -2 -2 -2 -1 -1 -1 -2 -2 -1 -1 -1 -1 -1 -1 -1 -1 -1 -1 -1 -1 -1 -1 -1 -1 -1 -1 -1 -1 -1 -1 -1 -1 -1 -1 -1 -1 -1 -1 -1 -0 -1 -1 -1 -1 -2 -2 -2 -2 -2 -2 -2 -2 -2 -2 -2 -2 -2 -3 -3 -3 -3 -4 -4 -4 -4 -5
-15 -14 -12 -11 -9 -7 -6 -4 -3 -3 -3 -3 -3 -3 -2 -2 -2 -2 -2 -2 -2 -2 -2 -2 -2 -2 -2 -2 -2 -1 -1 -1 -2 -2 -2 -2 -2 -1 -1 -1 -1 -1 -1 -1 -1 -1 -1 -1 -1 -1 -1 -1 -1 -1 -1 -1 -1 -1 -1 -1 -1 -1 -1 -1 -2 -2 -2 -2 -2 -2 -2 -2 -2 -2 -2 -2 -3 -3 -3 -4 -4 -4 -4 -4 -5
-16 -15 -14 -12 -11 -9 -7 -5 -4 -3 -3 -3 -3 -3 -2 -2 -2 -2 -2 -2 -2 -2 -2 -2 -2 -2 -2 -2 -2 -2 -2 -2 -2 -2 -2 -2 -2 -2 -2 -2 -1 -1 -1 -1 -1 -1 -1 -1 -1 -1 -1 -1 -1 -1 -1 -1 -1 -1 -1 -1 -1 -1 -1 -1 -1 -1 -1 -2 -2 -2 -2 -2 -2 -2 -2 -3 -3 -3 -4 -4 -4 -4 -4 -5 -5
-16 -15 -15 -14 -13 -12 -11 -9 -7 -5 -4 -3 -3 -3 -2 -2 -2 -2 -2 -2 -2 -2 -2 -2 -2 -2 -2 -2 -2 -2 -2 -2 -2 -2 -2 -2 -2 -2 -2 -2 -2 -2 -1 -1 -1 -1 -1 -1 -1 -1 -1 -1 -1 -1 -1 -1 -1 -1 -1 -2 -2 -2 -2 -1 -1 -1 -1 -2 -2 -2 -2 -2 -2 -2 -3 -3 -3 -4 -4 -4 -4 -4 -4 -5 -5
-16 -16 -16 -15 -15 -14 -13 -12 -10 -8 -6 -4 -3 -3 -2 -2 -2 -2 -2 -2 -2 -2 -2 -2 -2 -3 -3 -3 -2 -2 -2 -2 -2 -2 -2 -2 -2 -2 -2 -2 -2 -2 -2 -2 -2 -1 -1 -1 -1 -1 -1 -1 -1 -1 -1 -1 -2 -2 -2 -2 -2 -2 -2 -2 -1 -1 -2 -2 -2 -2 -2 -2 -2 -2 -3 -3 -3 -4 -4 -4 -4 -5 -5 -5 -5
-17 -17 -17 -17 -16 -15 -14 -13 -12 -11 -9 -7 -6 -5 -4 -3 -3 -2 -2 -2 -2 -2 -2 -2 -2 -3 -3 -3 -3 -2 -2 -2 -2 -2 -2 -2 -2 -2 -2 -2 -2 -2 -2 -2 -2 -2 -2 -2 -2 -2 -2 -2 -2 -2 -2 -2 -2 -2 -2 -2 -2 -2 -2 -2 -2 -2 -2 -2 -2 -2 -2 -2 -2 -2 -3 -3 -3 -4 -4 -4 -4 -5 -5 -5 -6
-18 -18 -18 -18 -17 -17 -16 -15 -15 -14 -12 -10 -10 -9 -8 -7 -6 -5 -4 -4 -4 -4 -4 -4 -4 -3 -3 -3 -3 -3 -3 -3 -3 -3 -2 -2 -2 -2 -2 -3 -3 -3 -3 -3 -3 -3 -3 -3 -2 -2 -2 -2 -2 -2 -2 -2 -2 -2 -2 -2 -2 -2 -2 -2 -2 -2 -2 -2 -2 -2 -2 -2 -2 -3 -3 -3 -4 -4 -4 -4 -5 -5 -5 -5 -6
Height
667 670 672 676 678 680 684 687 690 694 696 699 702 705 709 712 715 718 721 723 726 728 731 733 736 738 740 742 743 745 747 748 750 751 753 753 754 755 755 756 757 757 758 759 760 761 762 762 763 763 765 765 766 767 768 769 771 772 774 776 778 779 780 780 781 785 789 792 795 798 801 803 806 810 813 815 817 819 821 823 825 827 829 830 832
665 668 671 674 676 678 682 685 688 691 693 696 700 703 706 710 713 716 718 721 723 726 728 731 733 735 737 738 740 742 744 745 747 749 750 750 751 752 752 753 753 754 755 757 758 759 759 760 761 761 762 762 763 764 766 767 769 771 772 774 776 777 778 779 780 783 788 792 794 797 800 803 805 807 810 812 813 816 818 820 822 824 826 827 829
663 666 669 672 675 677 680 682 685 688 691 694 697 700 704 707 710 713 715 718 720 723 726 728 730 732 734 735 737 739 741 743 745 746 746 747 748 748 749 749 750 752 753 754 755 756 757 757 759 760 760 761 761 762 763 765 767 769 771 773 774 775 776 777 778 781 785 790 793 795 797 800 802 804 807 809 812 814 816 817 819 821 823 824 826
662 665 667 670 673 676 678 680 683 685 688 691 694 698 702 705 708 710 713 716 718 721 723 725 728 729 731 732 734 736 739 740 742 743 743 744 745 746 746 746 748 749 751 752 753 754 755 756 757 758 760 760 760 760 761 764 765 767 768 770 772 773 774 776 777 779 783 788 791 793 795 797 800 803 805 808 811 813 815 816 817 819 821 822 823
661 663 665 668 671 673 676 678 681 683 686 689 692 696 699 702 705 708 710 713 716 718 721 722 724 726 727 729 732 734 736 738 739 740 741 741 742 743 743 744 745 747 748 750 751 752 753 755 756 757 758 760 760 760 760 761 763 765 767 768 770 771 773 775 777 779 782 786 789 792 794 797 799 802 805 807 809 811 813 814 816 817 819 820 821
660 662 664 666 668 671 674 676 679 682 684 687 690 694 697 700 703 705 708 711 713 716 718 719 721 723 725 727 730 732 734 735 736 737 738 738 739 740 741 742 743 745 746 748 749 751 752 753 755 755 756 757 759 759 759 760 762 764 766 768 769 770 772 775 777 779 782 785 788 791 793 796 798 801 803 805 807 809 811 812 814 815 817 817 819
659 661 662 665 667 669 671 674 677 680 683 686 689 692 695 697 700 703 705 708 711 713 714 716 718 720 723 725 727 730 731 732 733 734 735 736 737 737 738 740 741 743 744 746 747 749 750 751 753 754 754 755 756 757 759 760 761 762 764 766 768 769 772 774 777 779 782 785 788 790 792 795 797 799 801 803 806 808 809 810 811 812 814 815 816
658 660 661 663 665 667 670 673 675 679 682 685 688 691 693 696 698 701 703 706 708 710 712 714 716 718 721 723 725 727 729 730 730 731 732 733 734 735 736 738 739 741 742 744 745 746 748 749 751 752 753 754 755 756 757 758 760 762 764 765 767 769 771 773 776 779 782 785 787 789 791 793 796 798 800 803 804 805 806 807 808 809 811 812 812
657 659 661 662 664 666 669 672 675 678 681 684 687 689 691 694 696 699 701 703 705 708 710 712 715 717 719 721 723 725 726 727 728 729 730 731 732 733 734 735 737 739 740 742 743 744 746 747 748 750 752 753 754 755 756 757 758 760 763 764 766 768 770 773 776 779 781 784 786 788 790 792 794 796 798 799 800 800 801 804 805 807 809 810 810
657 659 660 662 664 666 668 671 674 677 680 682 685 688 690 692 695 697 699 701 704 706 708 711 713 715 716 719 721 722 723 725 726 726 727 728 730 731 732 733 735 737 738 739 741 742 744 745 746 748 750 752 753 754 756 756 757 759 760 762 764 766 769 772 775 777 779 781 783 785 787 789 791 792 794 794 796 798 799 801 803 805 807 808 808
656 659 660 662 664 666 668 671 673 676 678 681 683 686 688 690 692 695 697 699 702 704 707 709 711 712 714 717 719 720 721 722 724 725 726 727 728 729 730 731 733 734 736 737 739 741 742 744 745 747 749 750 752 753 754 755 757 758 759 760 763 764 766 769 772 774 776 778 780 782 784 786 787 789 791 793 795 796 798 799 801 803 805 807 807
656 658 659 662 664 665 667 670 672 674 677 679 682 684 686 688 690 693 695 697 700 702 705 707 709 711 713 715 716 717 719 720 721 723 724 725 726 727 728 729 731 732 733 735 737 739 740 742 743 745 747 749 750 752 753 754 756 757 759 760 762 764 765 767 769 771 773 775 777 779 781 783 785 787 789 791 792 794 796 798 799 801 803 804 804
655 657 658 661 662 664 667 668 671 673 675 677 680 682 684 686 688 690 692 695 698 700 703 705 707 709 711 713 714 715 717 718 719 721 722 723 724 726 727 728 729 730 732 733 735 737 738 740 742 744 745 747 749 751 752 753 755 757 759 760 762 764 766 767 768 769 771 772 774 776 778 780 782 784 786 788 790 792 794 796 797 799 800 801 802
654 656 658 660 661 663 665 667 669 671 673 676 678 680 682 684 686 688 690 693 695 698 700 702 704 706 708 710 712 713 715 716 718 719 720 721 723 724 725 726 727 729 730 732 733 735 737 738 740 742 744 745 747 749 751 752 754 756 758 759 761 763 765 767 768 769 770 771 773 774 776 778 780 782 784 786 788 790 791 793 795 797 798 800 801
652 654 657 659 661 662 664 666 668 670 672 674 676 678 680 681 684 686 688 691 693 695 697 699 702 704 706 708 710 711 713 715 716 717 718 720 721 722 723 725 726 727 729 730 732 733 735 737 739 741 742 744 746 748 750 752 753 755 757 758 760 762 764 766 767 769 770 772 773 775 777 778 780 781 783 785 786 788 790 791 793 795 797 799 800
651 653 655 657 659 661 662 664 666 668 670 672 674 676 677 679 681 684 686 688 691 693 695 697 699 701 703 706 707 709 711 713 714 716 717 718 719 721 722 723 725 726 728 729 731 732 734 736 738 739 741 743 745 747 749 751 753 754 756 757 759 761 763 765 766 768 770 772 773 775 776 778 779 780 782 783 785 787 789 791 792 794 796 797 799
650 651 653 654 656 658 660 661 663 665 667 669 671 672 674 676 679 681 684 686 688 690 692 694 696 698 700 702 704 706 708 710 712 714 715 717 718 719 720 722 723 725 726 728 729 730 732 734 736 738 740 742 744 746 748 750 752 754 755 756 758 760 761 764 765 767 769 771 772 774 775 776 777 778 780 782 783 785 787 788 790 792 794 795 797
649 650 651 652 653 655 657 659 660 662 664 665 667 669 671 674 676 679 681 683 685 687 690 692 694 696 697 699 701 703 705 707 710 712 713 715 716 717 719 720 722 723 725 726 728 729 730 732 734 736 738 740 742 745 747 749 751 752 753 755 756 758 759 762 763 765 767 769 770 772 773 775 776 777 779 780 782 783 785 786 788 790 791 793 794
648 649 649 650 651 653 655 656 658 660 661 662 664 666 669 671 674 677 679 681 683 686 688 690 692 693 695 697 698 700 702 704 707 709 711 713 715 716 718 719 720 722 723 725 726 727 729 730 732 734 736 738 740 742 744 746 748 750 752 753 755 755 757 759 761 763 765 767 768 770 772 773 775 776 778 779 781 782 784 785 787 788 789 791 792
648 649 649 650 651 652 653 655 657 658 659 660 662 664 667 669 672 675 677 680 682 685 686 688 689 691 693 695 696 698 699 701 704 707 709 711 712 714 716 717 718 720 722 723 725 726 727 728 730 732 734 736 738 740 742 744 746 748 750 751 752 753 756 759 760 762 764 766 767 769 771 772 773 775 776 778 779 781 782 784 785 786 788 789 790
648 649 649 650 651 651 652 653 655 657 658 660 662 663 665 667 670 672 675 678 681 683 684 686 687 689 690 692 693 695 697 699 701 704 706 708 710 712 713 714 716 718 720 722 723 724 725 727 728 730 732 734 736 738 740 742 744 746 747 749 751 753 755 758 759 761 763 765 766 768 769 771 772 773 775 776 777 779 781 782 784 785 786 787 788
647 647 647 648 649 650 651 652 653 655 657 659 661 663 664 666 668 670 673 676 678 680 682 684 685 687 688 690 691 692 694 696 698 701 703 705 707 709 710 712 715 717 718 720 721 723 724 725 727 729 730 732 734 736 738 740 742 744 746 748 750 752 754 756 758 760 762 763 765 766 767 769 770 771 773 774 776 778 779 781 782 784 785 786 787
646 645 645 645 646 647 648 649 651 652 655 657 659 661 663 665 667 669 671 674 676 679 680 682 684 685 686 687 688 689 691 693 695 698 700 702 704 706 708 710 712 714 716 717 719 721 723 724 726 728 729 731 733 734 736 738 740 742 744 747 749 751 753 755 756 758 760 762 763 764 765 766 768 769 771 772 774 776 778 779 781 782 783 784 785
644 644 644 643 644 645 645 647 648 650 652 654 657 659 661 663 665 667 669 671 674 676 678 680 681 683 683 684 685 686 688 690 692 694 697 700 702 704 706 708 710 712 714 715 717 719 721 723 725 726 728 729 731 733 735 737 739 741 743 745 747 749 751 753 755 757 759 760 761 762 763 765 766 767 769 771 773 774 776 778 779 780 782 783 784
642 642 642 642 642 643 643 644 646 647 649 652 653 655 658 660 662 664 666 668 671 672 675 677 678 679 680 681 681 682 684 686 689 691 694 697 699 701 703 705 707 710 711 713 715 717 719 721 723 725 726 728 730 731 733 735 737 739 741 743 745 747 749 751 753 755 756 758 759 761 762 764 765 767 768 770 771 773 774 776 777 779 780 781 783
641 640 641 641 641 641 641 642 643 645 647 649 650 652 654 656 659 661 663 665 667 669 671 673 675 676 677 677 678 680 682 684 686 688 691 694 696 698 701 703 705 708 709 711 714 716 718 720 721 723 724 726 728 729 731 734 736 738 740 742 743 745 747 749 751 752 754 756 758 759 761 763 764 766 767 769 770 771 773 774 775 777 778 780 781
642 640 639 639 640 640 640 639 640 642 644 646 648 650 652 653 656 657 659 661 663 666 668 669 671 672 672 673 676 678 680 682 684 685 687 689 692 695 698 700 703 705 707 709 711 714 716 718 720 722 723 725 727 728 730 732 734 736 738 740 742 743 745 747 749 751 752 754 755 757 759 761 763 764 766 767 769 770 772 773 774 776 777 779 780
644 642 640 639 639 639 639 638 638 639 641 643 645 647 649 651 652 652 653 655 657 659 661 663 665 666 666 669 673 676 678 679 678 678 679 682 686 690 693 696 698 701 703 706 709 712 715 717 719 720 722 723 725 727 728 730 732 734 736 738 740 742 743 745 747 749 751 752 754 756 758 760 761 763 764 766 768 769 771 772 774 775 776 778 779
645 643 642 640 639 638 638 637 636 636 638 640 642 643 645 646 647 648 649 651 652 653 655 656 658 659 661 664 667 671 673 672 670 671 674 677 681 685 688 690 694 697 700 703 707 710 712 714 716 718 719 721 723 724 726 728 730 732 734 736 738 739 741 743 745 747 749 751 753 755 756 758 760 762 763 765 766 768 769 771 773 774 776 777 778
643 642 641 640 639 638 637 636 636 635 635 637 639 641 643 644 645 646 648 649 651 653 654 655 655 657 659 661 663 665 666 666 667 670 673 676 679 683 687 690 693 696 699 702 706 708 710 712 713 715 716 718 720 722 724 726 728 730 732 734 735 737 739 741 743 745 747 749 751 753 755 757 759 760 762 763 765 767 769 771 772 773 774 776 777
643 641 639 638 636 635 635 635 635 635 635 635 637 639 641 643 644 645 646 648 650 652 653 655 656 657 659 660 662 665 666 667 668 670 672 675 678 683 687 691 694 696 698 701 704 706 707 709 711 712 714 716 717 719 721 723 725 727 729 732 734 735 737 739 741 744 746 748 750 752 754 755 757 759 761 762 764 766 768 769 771 772 773 775 776
645 643 640 638 636 634 634 633 634 635 635 635 636 637 639 641 642 643 645 646 648 649 651 653 655 656 657 659 661 663 665 666 667 669 671 674 677 681 685 689 693 695 698 700 702 704 705 706 707 709 711 713 715 717 719 721 723 725 727 729 731 733 735 737 739 742 744 746 748 750 752 754 756 757 759 761 763 765 767 768 769 770 772 774 776
646 644 642 639 636 635 634 633 633 634 634 634 634 635 636 637 638 640 642 644 646 648 649 651 652 654 656 658 659 661 662 664 665 667 670 672 675 679 683 687 691 694 697 698 700 701 702 703 704 706 708 710 712 715 717 719 721 723 725 726 728 730 733 735 738 740 742 745 747 748 750 752 754 756 758 760 762 764 765 766 768 769 771 773 775
646 644 642 640 637 635 633 632 632 632 633 633 633 633 633 634 635 638 641 643 645 646 647 648 650 652 653 655 656 658 660 661 663 665 668 671 674 678 682 686 690 693 694 695 696 698 699 700 701 703 705 708 710 713 715 717 719 721 723 725 727 729 731 734 736 738 741 743 745 746 748 750 752 754 756 758 760 762 763 764 766 768 770 772 773
645 643 641 639 637 635 633 632 631 630 631 632 632 632 632 632 633 635 637 639 640 642 643 645 647 649 650 652 653 655 657 659 661 663 665 668 672 677 681 684 687 689 690 691 693 694 695 697 699 701 703 706 708 710 712 715 717 719 721 723 725 727 729 732 734 736 738 741 742 744 746 748 749 751 754 756 757 759 761 762 764 766 768 770 770
645 642 639 638 637 634 632 631 630 630 630 630 631 631 631 632 632 633 634 636 637 639 640 642 644 646 648 649 650 652 654 656 659 661 663 666 669 673 677 679 681 683 685 686 689 691 692 694 696 699 701 703 706 708 710 713 715 717 719 721 722 724 726 729 731 734 736 738 740 741 743 745 747 749 751 753 755 757 758 761 763 765 766 767 768
644 641 638 637 636 634 632 630 629 629 629 629 630 631 631 631 630 631 632 634 635 637 639 640 642 643 644 645 647 650 652 654 657 660 662 665 668 670 673 675 677 679 681 683 685 687 689 691 694 696 698 701 703 706 708 711 714 716 717 719 720 722 724 726 729 731 733 735 737 739 740 742 744 746 748 750 752 755 757 759 761 762 764 765 766
643 640 638 637 635 633 631 629 628 627 627 628 628 629 630 630 630 630 630 632 633 635 636 637 638 639 639 641 644 647 650 653 656 658 661 664 666 668 670 672 674 676 678 681 683 685 687 689 691 694 696 698 701 704 706 709 712 714 715 717 719 720 722 724 726 729 731 733 734 736 738 740 742 744 746 748 750 752 755 757 758 760 762 763 764
642 639 636 635 634 633 631 629 627 626 626 626 627 628 628 629 629 629 629 630 631 632 632 633 634 635 636 639 642 645 647 650 652 655 658 661 663 665 667 670 672 674 676 679 681 683 685 687 689 691 694 696 699 701 704 707 709 711 713 715 716 718 719 721 723 725 728 730 732 734 735 737 739 741 743 745 748 750 752 754 755 757 758 760 761
642 639 636 634 633 632 631 629 627 626 625 625 626 626 627 628 628 628 627 627 628 629 629 630 631 633 635 637 639 642 644 647 649 652 655 658 660 662 665 667 670 672 674 676 678 681 683 684 686 689 692 694 697 699 702 705 707 709 710 712 713 715 716 718 720 722 724 727 729 731 733 735 737 739 741 743 745 748 749 751 753 754 756 757 759
643 640 637 634 633 631 630 628 627 625 624 624 624 625 625 626 627 627 626 626 626 627 627 629 630 632 634 636 638 640 642 645 647 650 653 655 657 660 662 665 668 670 672 674 676 679 681 682 684 687 689 692 695 698 700 702 704 706 708 709 711 712 714 715 717 719 722 724 726 729 731 733 735 737 739 741 743 745 747 748 750 752 753 755 757
643 640 637 634 632 630 629 627 626 624 623 623 622 623 623 624 625 625 625 625 625 625 626 628 630 631 633 635 637 640 642 643 645 648 650 653 656 658 661 664 667 668 671 673 674 677 679 681 683 685 687 690 693 695 698 700 702 703 705 707 708 710 711 713 715 717 719 722 724 727 729 731 733 735 737 739 741 742 744 746 747 749 751 753 755
643 640 637 634 632 630 628 626 625 624 623 621 621 621 622 622 623 624 624 624 624 625 626 627 629 630 632 634 636 639 641 642 644 646 649 651 654 657 660 663 665 667 670 672 674 676 678 680 682 684 686 688 691 693 695 697 699 701 703 704 706 708 709 711 713 715 717 720 723 725 727 729 731 733 735 736 738 740 741 743 745 747 749 751 753
643 640 637 634 631 629 627 625 623 622 621 620 619 620 620 621 622 622 623 624 624 624 625 627 628 629 631 633 635 637 639 641 643 645 647 650 653 656 659 662 664 667 669 671 673 676 678 679 681 683 685 687 689 691 693 695 697 699 701 702 704 706 707 709 711 713 716 718 721 723 725 727 729 731 732 734 735 737 739 741 743 745 747 749 751
643 640 637 634 631 628 625 623 621 620 619 618 618 618 619 620 620 621 622 623 623 624 625 626 627 628 630 631 633 635 637 639 641 643 646 648 651 654 658 660 663 666 668 671 673 675 677 679 681 682 684 686 688 690 692 694 695 697 699 700 702 704 706 708 710 712 715 717 719 721 723 725 727 728 730 732 733 735 737 738 741 743 745 747 749
642 640 637 634 631 627 624 621 619 617 616 617 617 617 618 619 619 620 621 622 622 623 624 624 625 626 628 629 631 633 635 638 640 642 644 647 650 653 656 659 662 665 668 670 672 674 676 678 680 681 683 685 687 689 691 692 694 696 697 699 701 702 705 707 709 711 713 716 718 720 722 723 725 727 728 730 732 733 735 737 738 740 743 745 747
641 638 636 633 630 626 623 620 617 615 615 615 615 616 617 617 618 619 620 620 621 622 623 623 624 625 626 628 630 632 634 637 639 641 644 646 649 652 655 658 661 664 667 670 672 674 676 678 679 681 683 684 686 688 690 691 693 694 696 697 699 701 703 705 708 710 712 714 716 718 720 722 723 725 727 728 730 731 733 735 737 738 741 743 745
640 637 634 632 629 625 622 619 616 614 613 613 614 615 615 616 616 617 618 619 621 622 622 622 622 623 624 626 628 630 633 636 638 641 644 646 648 651 654 657 660 663 666 669 671 673 675 677 679 680 682 684 685 687 688 690 691 693 694 696 698 699 702 704 706 708 710 712 714 716 718 720 722 723 725 726 728 730 731 733 735 737 739 741 744
640 637 634 632 629 626 622 619 617 614 612 612 613 614 614 614 615 616 617 619 621 621 621 621 621 622 623 625 627 629 632 635 637 640 643 646 649 651 654 657 660 663 665 668 670 672 674 676 678 680 681 683 684 686 687 689 690 692 693 695 697 698 701 703 704 706 708 710 712 714 716 718 720 721 723 724 726 728 729 731 733 735 738 740 742
642 639 636 634 631 628 625 621 619 616 614 613 613 614 615 615 615 617 618 619 620 621 621 620 620 621 623 624 626 629 631 634 637 640 643 646 649 651 654 656 659 662 664 667 669 670 673 675 676 678 680 682 683 685 686 688 689 691 692 694 696 698 699 701 703 705 707 709 710 712 714 716 718 719 721 722 724 725 727 729 731 733 735 738 740
645 642 639 637 634 631 627 624 622 620 617 616 616 617 618 618 618 619 619 620 621 621 621 620 620 621 622 624 626 628 630 633 636 639 642 645 648 650 653 655 657 660 663 665 667 669 671 673 675 677 678 680 682 683 685 686 688 689 691 692 694 696 698 700 702 703 705 707 709 711 712 714 716 717 719 720 722 724 725 727 729 731 733 735 737
Wind_Speed
33 33 33 33 33 35 36 36 37 38 39 40 41 41 41 41 39 38 37 36 34 32 31 30 29 29 28 29 29 29 30 30 28 24 21 21 21 21 21 20 20 20 21 23 24 26 26 27 28 28 28 28 28 27 27 29 31 31 32 33 32 29 27 22 11 8 16 23 26 27 28 30 35 37 38 38 38 40 40 41 41 41 42 42 41
31 32 32 32 33 34 36 36 37 38 39 40 41 41 41 40 39 38 37 36 33 32 31 30 29 28 28 28 28 28 28 26 22 20 20 20 20 19 18 17 17 17 19 23 25 26 26 27 28 28 27 27 26 26 27 29 30 31 31 30 31 31 30 28 18 11 13 17 21 25 27 27 31 36 38 39 40 41 41 42 41 41 42 42 41
30 31 31 32 33 34 36 37 38 39 39 40 40 41 41 40 39 38 36 34 32 31 30 30 29 28 28 28 27 26 23 21 19 19 20 20 19 17 16 16 16 18 21 24 25 25 25 25 26 26 25 25 25 26 28 29 31 31 30 30 31 33 33 30 22 14 15 17 19 23 26 28 31 34 37 40 40 40 41 42 42 41 41 41 42
30 30 31 32 33 34 35 36 37 38 38 39 40 41 41 40 39 37 35 33 32 31 30 28 27 27 26 26 24 22 20 19 19 19 20 19 18 17 14 13 15 18 22 23 24 24 24 24 24 23 24 24 24 26 27 29 31 32 32 32 32 32 32 29 24 20 18 17 17 22 25 28 30 32 35 37 36 37 39 40 40 40 40 40 41
29 31 31 32 32 33 34 34 36 37 38 40 41 41 41 39 38 36 35 33 31 30 29 27 26 26 25 24 22 20 20 20 19 19 19 19 17 15 13 13 15 18 20 22 23 23 22 22 22 21 22 23 23 25 27 28 31 32 32 32 32 30 30 28 25 23 21 20 19 20 22 25 28 30 32 34 35 35 35 36 37 38 38 38 39
29 30 30 31 31 32 33 34 35 37 38 40 41 40 40 38 37 36 34 32 31 30 29 27 26 25 24 22 21 20 20 20 19 19 20 19 16 14 13 14 16 17 19 22 22 23 22 21 22 22 23 25 25 25 26 28 30 31 31 30 30 29 29 28 26 23 22 22 21 21 22 24 26 27 29 32 34 35 34 33 34 35 36 37 39
28 29 29 30 31 32 34 35 37 38 39 40 40 39 38 37 36 34 33 32 30 29 28 26 26 25 24 21 20 20 20 20 19 19 19 19 17 15 14 15 16 18 20 21 22 23 22 22 22 24 25 27 27 27 27 28 30 31 32 30 29 28 28 28 27 24 22 21 20 21 22 24 24 24 26 28 29 31 32 31 32 35 37 38 40
27 28 29 30 31 33 35 36 38 39 39 39 38 37 37 36 35 33 32 31 30 29 28 26 26 25 22 21 20 20 20 20 20 19 19 19 18 16 15 16 17 19 20 21 22 22 22 22 23 25 26 27 28 28 29 29 30 30 30 30 30 29 29 29 27 25 23 22 20 20 21 21 22 21 21 22 23 27 32 32 32 35 37 38 40
26 27 27 29 30 33 34 35 36 36 36 36 36 36 36 35 34 32 31 30 28 27 26 26 26 24 22 21 21 21 21 21 20 19 19 19 19 18 17 17 18 20 21 21 21 22 22 23 24 25 26 26 27 28 29 30 31 31 31 31 30 29 28 28 27 26 24 21 18 18 19 19 21 22 21 24 27 29 31 32 32 32 31 32 35
26 26 27 29 31 32 33 33 33 33 34 34 35 35 35 33 32 31 30 29 27 26 25 26 25 23 22 23 22 21 21 21 20 19 19 18 18 18 18 19 20 20 21 21 21 22 22 23 24 24 25 25 26 27 28 30 32 34 36 35 33 31 30 29 29 28 26 23 21 21 19 19 23 27 27 28 30 28 26 27 29 27 24 23 26
27 27 28 29 30 30 31 32 32 32 33 34 34 34 34 33 32 31 30 28 27 26 25 25 24 22 21 23 23 22 22 21 20 19 18 18 18 18 18 19 20 20 20 20 21 21 22 23 24 24 24 25 25 26 27 30 32 34 35 35 34 33 33 32 31 30 28 25 23 24 23 22 25 29 28 27 27 26 24 24 25 24 20 17 16
27 28 28 28 27 28 30 31 31 32 33 33 34 33 32 32 31 30 30 28 27 26 25 25 24 22 21 22 23 22 22 21 20 19 18 18 18 18 18 19 19 20 20 20 20 21 22 22 23 24 25 25 26 26 27 29 30 32 32 32 32 33 33 32 31 30 30 27 25 25 26 25 26 28 28 27 26 26 24 22 23 23 22 20 17
25 26 27 27 27 29 30 30 31 32 33 33 33 32 31 31 31 31 30 29 27 26 26 25 25 23 22 22 22 22 21 20 19 18 18 17 16 17 18 18 18 19 20 20 20 21 22 22 22 23 24 25 26 27 27 26 26 27 27 28 30 30 31 31 28 27 29 29 29 29 30 29 27 28 29 29 27 25 24 23 23 23 22 22 21
23 24 24 25 28 29 29 30 31 32 32 32 32 31 31 32 31 31 30 29 28 27 27 27 26 25 24 23 23 22 21 19 18 18 18 17 15 16 17 18 17 19 20 20 20 21 22 22 22 22 23 24 25 26 26 26 25 25 24 24 26 28 29 29 28 26 26 28 28 29 30 29 27 26 26 26 26 24 24 24 24 24 23 22 19
23 23 24 24 26 28 29 30 31 30 30 30 30 31 31 31 31 30 30 29 29 29 29 28 28 26 25 24 23 23 22 20 19 18 18 17 14 14 16 17 17 18 19 19 19 20 21 22 23 23 23 23 24 24 25 27 27 25 23 23 25 26 27 27 27 26 25 25 24 24 23 23 24 23 21 21 22 22 21 21 20 20 20 18 15
22 23 24 25 26 28 30 31 30 29 29 29 30 31 31 31 31 31 30 30 29 29 29 29 28 27 26 25 24 24 23 22 21 19 18 17 15 14 16 18 18 19 19 19 19 20 20 22 23 24 24 23 24 24 25 26 26 25 24 24 24 25 26 26 25 24 23 22 20 18 17 16 17 17 17 16 17 19 19 16 15 15 15 14 13
21 22 24 26 28 29 30 31 31 29 29 30 31 32 32 32 32 31 31 30 30 30 31 30 29 28 27 26 26 25 24 23 22 21 20 19 17 16 17 19 20 20 19 19 19 19 20 21 22 24 25 25 25 25 25 25 25 24 24 24 24 24 25 24 23 22 22 21 19 17 15 13 12 12 13 13 14 16 18 17 15 16 16 13 10
20 22 25 27 29 30 32 33 32 31 31 32 33 34 33 32 32 32 32 31 32 32 32 30 29 28 27 27 26 26 25 25 24 23 22 21 19 18 19 20 21 21 20 20 20 20 20 20 21 23 24 25 26 26 26 25 24 25 25 24 24 25 25 24 23 23 22 20 18 17 15 14 13 13 13 14 14 16 17 17 17 18 18 15 11
19 22 25 28 29 31 32 33 32 32 33 34 35 34 33 32 32 32 32 31 31 31 30 29 29 28 27 27 26 25 25 25 26 25 23 23 22 20 20 22 22 22 22 21 20 20 20 20 20 21 23 23 24 25 25 25 25 26 26 25 25 26 26 25 24 24 23 21 20 19 18 17 16 16 16 16 16 16 16 17 17 18 18 18 15
17 19 23 25 27 30 32 33 32 33 34 35 35 34 33 32 31 31 31 30 29 28 28 28 28 28 27 26 26 26 25 24 26 26 25 24 23 22 22 24 25 24 23 22 21 21 21 21 21 21 21 22 22 22 24 25 25 26 26 26 26 26 25 24 24 23 23 23 22 21 20 19 19 18 18 17 17 17 16 17 17 17 18 19 19
16 16 17 20 24 28 30 32 33 34 34 33 32 32 32 32 31 32 31 30 28 26 27 27 27 26 26 26 26 26 26 25 25 26 26 26 25 24 24 25 27 26 24 23 23 22 22 22 22 21 21 21 21 21 22 24 25 25 25 25 24 23 22 23 24 24 23 23 23 22 21 20 20 19 19 19 19 18 18 18 17 17 18 19 19
18 15 14 16 20 24 28 30 32 33 33 30 27 28 29 30 30 31 30 29 28 26 25 25 25 24 24 25 25 26 26 25 26 26 27 27 27 26 26 25 25 26 25 25 24 23 23 22 21 20 20 20 20 20 21 22 24 24 23 22 22 22 21 22 23 24 23 23 22 22 21 20 20 19 19 19 19 18 18 18 17 17 17 18 18
19 16 15 15 17 20 25 28 30 32 32 31 28 27 27 28 28 28 28 27 26 25 24 23 22 22 22 24 25 26 26 26 26 26 27 27 27 27 27 25 25 25 26 26 26 25 23 22 20 20 20 20 21 20 21 22 23 24 22 22 22 22 20 20 22 24 23 22 22 22 21 20 20 20 20 19 18 17 17 17 17 18 18 19 19
20 18 16 15 16 18 21 25 28 31 32 31 29 28 27 27 27 27 28 28 26 24 23 23 22 21 22 23 25 26 27 26 27 27 27 27 27 28 27 27 25 25 26 26 25 25 23 22 21 21 21 22 22 22 22 23 24 24 23 23 23 22 20 20 22 23 23 22 21 21 20 20 20 19 18 17 16 16 17 18 19 20 20 19 18
22 21 18 15 16 16 19 22 26 29 30 29 30 29 28 27 27 27 28 28 27 25 23 23 23 22 22 23 25 27 27 27 27 27 27 28 27 27 27 27 27 26 26 26 25 24 23 22 21 21 22 23 23 23 24 24 24 24 23 23 23 22 21 21 23 23 23 22 21 20 20 19 18 16 14 14 14 16 18 20 20 20 19 18 17
23 23 20 16 15 15 17 20 23 26 27 28 30 30 30 30 29 29 29 29 28 27 25 24 24 23 23 24 25 25 25 26 27 28 28 28 28 28 28 27 27 26 25 24 23 22 22 22 22 23 23 24 24 25 25 24 23 22 22 23 23 22 22 22 24 24 23 22 21 20 19 17 14 13 12 12 14 16 17 19 19 18 18 17 16
23 22 21 19 15 14 17 19 20 23 25 27 28 29 30 31 30 29 29 28 26 25 25 25 23 23 23 24 23 22 23 25 26 28 29 30 30 30 29 28 28 27 26 25 23 23 23 23 23 23 24 24 25 25 25 25 24 23 23 23 23 22 22 23 23 23 23 22 21 19 17 14 13 13 13 12 13 14 16 17 17 17 17 16 15
22 21 21 20 16 14 16 18 19 21 24 27 28 29 30 30 30 31 32 33 31 29 28 27 27 28 27 26 23 21 22 25 29 33 36 36 35 33 32 31 31 30 29 28 26 25 25 24 24 24 25 25 25 24 24 24 25 24 24 24 23 22 22 22 21 21 20 20 18 16 15 15 15 15 15 14 14 15 15 16 16 17 17 16 15
21 19 19 19 17 14 14 17 19 21 23 25 28 30 32 33 33 34 35 36 36 35 33 33 35 35 32 30 27 24 24 30 36 38 37 37 37 37 36 36 35 33 31 29 27 26 26 26 26 25 25 25 24 23 23 23 23 23 24 24 23 22 22 22 21 20 19 18 17 16 17 17 17 17 16 15 15 15 15 15 16 16 16 16 15
18 18 19 18 17 14 13 15 17 19 21 23 26 28 30 32 33 33 33 34 36 35 33 33 35 35 33 33 33 31 29 31 33 31 31 33 35 35 34 33 33 32 30 29 28 27 27 27 26 26 25 25 25 24 23 23 23 23 23 23 23 22 22 21 21 20 19 18 18 18 18 19 18 18 17 16 15 14 14 14 15 16 16 16 15
16 17 18 19 19 17 14 14 16 18 20 22 23 24 24 26 28 30 30 31 32 34 33 31 31 31 32 32 32 30 28 24 22 23 27 30 31 32 31 29 29 31 31 30 29 27 26 25 24 24 24 24 24 25 25 25 25 25 24 24 23 23 22 21 21 21 20 20 19 19 19 19 18 17 17 16 14 14 14 14 14 15 15 16 17
16 16 18 20 21 20 16 14 15 18 19 20 21 22 21 20 21 24 27 28 29 31 32 32 30 29 29 30 29 28 27 25 22 19 20 25 29 30 30 29 29 29 30 30 27 26 26 25 24 24 24 24 24 25 25 26 26 26 26 26 25 24 23 22 21 22 21 21 21 20 20 19 19 17 16 15 15 15 15 15 14 15 16 16 17
18 16 18 20 21 20 18 14 14 16 18 19 20 21 21 18 17 18 21 24 25 26 28 30 31 29 27 27 28 27 26 26 25 19 16 20 26 29 29 30 29 28 30 30 27 26 26 26 25 25 25 24 24 24 25 26 26 26 27 27 26 25 24 22 21 22 22 22 22 21 20 19 19 18 17 17 17 17 17 16 16 16 17 17 16
20 17 18 20 19 19 18 16 14 15 17 18 19 20 22 21 19 18 17 17 18 20 24 27 29 28 27 25 25 24 24 24 24 21 16 18 24 27 27 27 27 28 31 32 28 26 26 25 24 24 24 24 24 24 25 25 25 25 25 25 24 24 23 22 21 22 22 22 22 21 20 20 20 19 19 19 19 18 18 18 18 19 18 18 17
22 19 19 20 20 19 19 17 15 15 16 18 18 19 20 21 20 20 20 18 17 18 21 25 27 27 26 24 22 22 22 22 22 20 18 19 24 28 28 27 28 31 33 32 29 26 25 25 24 24 24 24 24 25 25 25 25 25 24 24 23 23 23 23 23 22 22 22 22 21 20 21 21 20 20 20 20 20 19 19 19 20 20 19 18
25 22 18 19 21 21 21 19 16 15 16 18 19 19 19 20 20 21 21 20 19 17 18 21 23 23 23 22 21 21 21 20 20 20 19 22 27 32 32 30 31 32 32 31 29 27 26 25 24 23 24 24 24 24 24 24 24 24 24 24 24 23 23 23 23 22 22 22 21 20 20 21 21 21 21 21 22 21 20 20 21 22 21 19 18
24 21 18 19 22 22 22 21 18 16 15 17 18 18 19 19 20 20 19 19 18 17 17 18 19 19 19 19 20 20 19 19 18 18 19 23 30 34 33 31 30 30 29 29 28 26 25 25 24 24 24 24 25 24 24 24 23 24 24 24 23 23 22 22 22 22 22 22 21 20 21 21 21 22 22 22 22 22 21 22 22 22 21 19 17
23 21 21 22 22 22 21 20 20 17 15 15 16 17 18 18 18 19 18 18 18 18 17 18 18 18 18 18 19 19 19 19 19 20 22 27 32 33 32 30 29 28 27 27 27 26 24 24 25 25 25 25 25 25 24 24 24 24 24 24 23 22 21 21 21 21 21 21 21 21 22 22 22 23 23 23 23 23 23 23 23 21 20 18 17
24 25 26 24 21 21 20 20 20 18 15 14 15 16 17 17 17 18 17 17 18 17 17 17 16 16 17 19 20 21 22 24 26 27 29 31 33 33 31 28 28 27 26 26 26 25 24 24 25 25 25 25 25 25 24 24 24 25 25 24 23 22 21 21 21 21 21 21 21 22 22 23 23 24 24 24 24 24 24 24 24 22 20 19 18
26 27 28 25 21 21 20 19 19 18 16 15 15 16 17 16 16 17 16 16 16 16 16 16 16 17 18 21 24 26 27 28 30 31 31 30 30 30 29 28 27 27 26 26 26 26 25 24 25 25 25 25 25 25 24 25 24 24 24 23 23 22 22 21 21 21 21 21 21 22 23 23 24 25 25 25 25 25 25 24 24 23 22 20 19
27 26 26 25 23 21 20 18 18 17 16 16 16 16 17 17 16 16 16 16 15 15 15 15 16 18 20 23 26 28 29 28 29 29 28 27 27 28 28 27 26 26 25 25 26 26 25 24 24 25 25 25 25 25 25 25 24 23 23 23 22 21 21 21 21 21 21 21 22 22 23 24 25 25 25 25 24 24 25 24 23 22 21 20 20
29 26 24 23 22 19 18 18 18 18 17 16 17 17 16 17 17 16 16 15 14 14 15 15 16 18 20 23 26 27 26 26 26 26 25 24 24 25 25 25 24 24 25 25 25 26 25 24 24 25 25 25 25 24 24 24 24 24 23 22 21 20 21 21 21 22 22 22 23 23 24 24 24 25 25 25 25 24 24 24 23 22 22 21 20
27 25 23 23 21 19 17 17 18 18 17 16 17 18 17 18 18 17 17 16 15 15 15 15 16 18 20 23 26 26 24 23 24 23 23 23 23 23 23 23 23 23 23 23 23 24 24 24 23 24 24 23 23 24 24 24 24 24 23 22 20 20 21 21 22 22 23 23 24 24 24 24 24 25 25 25 24 24 24 24 23 23 22 21 20
25 24 23 22 20 18 17 16 17 17 17 16 16 18 18 18 18 18 18 17 17 17 17 17 18 19 21 24 26 25 22 22 23 22 22 22 22 22 22 22 21 22 22 22 22 23 23 23 23 23 23 22 23 23 24 24 24 24 22 21 20 20 21 21 22 22 23 24 24 25 25 25 25 25 25 25 24 24 24 24 24 23 22 21 21
23 21 20 19 18 17 17 16 15 16 16 15 15 16 17 18 19 19 19 18 18 19 19 20 20 21 22 24 24 23 21 21 22 22 22 22 21 21 21 21 21 21 22 21 22 22 22 22 22 22 22 22 22 22 22 22 22 22 21 21 22 21 21 21 22 22 23 24 25 25 25 25 25 25 25 25 25 25 24 24 24 23 22 22 21
21 19 18 17 16 16 16 15 14 14 14 14 13 14 15 16 18 18 19 19 20 19 20 21 21 22 22 23 23 22 21 21 21 21 22 21 21 20 20 20 20 21 21 21 21 21 21 21 22 22 22 21 21 19 19 19 19 19 20 22 23 21 20 20 20 21 23 25 26 26 26 26 26 25 25 25 25 25 24 24 24 24 23 22 22
21 20 19 18 17 16 16 15 13 11 12 13 13 13 13 14 16 17 18 19 20 20 20 20 21 21 22 22 22 22 21 20 19 20 20 21 21 21 20 20 20 20 19 20 20 19 19 20 20 19 19 18 18 17 18 18 18 18 18 19 21 22 21 20 19 20 22 24 26 27 27 26 26 25 25 24 24 24 24 23 23 23 23 22 22
21 21 21 20 19 18 18 17 15 11 9 10 12 13 12 12 13 14 16 17 19 19 19 19 19 20 21 21 22 22 21 19 19 19 20 20 20 20 20 20 20 20 19 19 19 19 19 19 18 17 17 18 18 18 19 19 19 19 19 18 18 19 19 19 19 20 21 23 25 26 27 26 25 25 24 24 24 23 23 23 23 23 22 22 22
21 21 21 21 21 20 19 18 16 14 11 8 9 11 11 12 12 13 15 16 17 17 17 17 18 18 19 20 21 21 20 19 19 19 19 20 20 19 19 19 20 20 20 20 20 19 19 17 17 17 17 17 16 15 15 16 16 18 19 19 18 17 17 18 19 20 21 22 24 25 25 26 25 24 24 24 24 24 23 23 22 22 22 22 22
21 21 22 22 22 22 20 18 17 16 13 10 7 5 4 6 8 10 13 14 14 14 15 16 17 17 18 19 20 21 20 20 20 20 20 20 20 20 20 20 20 20 21 20 20 20 19 19 18 18 17 16 16 16 17 17 18 18 18 18 18 17 17 17 18 19 20 21 23 24 24 25 25 24 23 23 24 24 24 23 22 23 23 23 23
22 22 22 23 23 22 22 21 20 19 17 14 13 11 8 5 4 6 10 12 12 13 14 16 18 19 19 20 21 22 22 22 22 21 21 21 21 21 22 21 21 21 21 20 20 19 19 19 19 19 18 18 18 19 19 20 20 20 20 20 20 19 17 16 16 17 18 19 20 22 23 24 24 24 23 23 23 24 24 23 23 23 24 24 23
Wind_Direction
200 201 200 200 199 197 198 198 197 197 198 199 199 200 202 203 203 202 201 200 202 206 211 215 218 221 223 226 229 234 238 242 244 242 240 241 243 244 244 242 242 246 250 252 251 249 247 247 248 248 248 246 241 234 227 222 219 217 217 215 213 216 212 197 175 158 187 199 202 201 202 204 206 210 213 215 218 220 223 226 227 227 227 229 232
198 198 197 197 196 196 195 195 196 197 197 198 198 199 201 201 200 199 199 201 206 211 215 216 218 221 224 228 233 237 240 240 238 234 234 237 238 238 237 238 244 250 252 251 250 249 248 247 248 248 244 237 231 227 224 220 216 214 214 212 209 211 207 194 178 153 162 184 196 200 202 204 207 212 215 218 220 221 223 226 228 228 229 231 233
196 195 194 194 194 194 194 195 195 196 196 197 198 199 200 199 199 200 202 206 209 213 217 217 218 221 225 230 234 235 235 233 231 230 231 232 233 235 235 238 246 252 250 248 247 246 244 242 243 243 240 232 223 221 221 218 216 215 213 209 207 208 205 199 190 173 164 173 186 194 199 207 213 217 220 221 221 222 224 226 228 229 231 232 235
194 192 192 192 193 193 194 194 194 194 195 196 198 200 200 200 202 204 206 208 211 214 216 217 219 222 225 229 229 227 226 227 229 229 228 228 231 233 235 238 244 249 248 247 246 244 240 237 237 240 239 232 222 217 216 215 217 217 214 210 209 208 207 205 203 195 181 176 187 198 203 210 217 220 221 221 221 223 225 227 229 231 232 233 235
192 191 191 191 192 192 193 193 194 194 195 197 198 200 200 201 203 205 207 209 212 213 214 216 218 220 223 224 223 222 223 224 226 227 226 228 230 232 234 238 242 246 247 247 247 245 240 235 234 235 235 232 225 219 214 212 214 216 214 211 209 209 207 205 205 201 194 188 191 199 205 211 214 217 220 221 220 222 225 228 230 232 234 235 236
191 190 190 190 191 192 193 194 194 195 196 198 199 200 200 201 203 206 208 209 211 212 213 215 215 216 220 220 219 220 222 223 226 227 225 226 229 231 233 238 241 244 246 245 246 245 241 238 234 231 229 228 227 224 217 212 210 211 212 209 207 204 201 200 201 200 200 198 194 194 200 207 210 214 218 221 222 223 224 228 232 234 235 237 238
191 191 190 190 192 193 195 196 196 197 198 199 200 200 201 203 204 206 207 209 211 211 212 212 212 214 218 217 215 218 219 222 227 227 225 225 227 229 232 238 242 245 245 244 244 244 243 240 236 233 230 228 226 224 218 211 208 208 208 204 201 198 195 195 197 197 196 194 192 194 197 202 207 212 216 219 222 225 226 227 231 235 237 239 241
191 192 192 192 193 196 197 198 199 199 200 201 201 201 202 204 205 206 208 209 211 211 209 209 210 215 217 211 212 217 218 222 227 226 225 224 225 228 232 237 240 241 243 244 244 245 244 241 238 236 235 232 229 225 219 212 206 204 204 202 198 195 193 192 193 195 194 190 189 193 194 196 202 208 212 213 214 221 226 226 231 235 238 240 242
194 193 194 195 197 198 198 199 200 200 200 201 201 202 203 204 206 207 208 209 209 209 209 208 210 216 213 206 209 216 217 222 225 226 225 223 223 228 233 236 239 239 239 240 241 243 244 241 239 237 237 235 232 229 225 219 211 206 204 200 196 193 191 191 191 191 190 188 188 189 187 191 197 198 202 207 211 219 223 223 228 235 239 243 246
196 195 197 199 201 200 199 199 199 199 200 201 201 203 204 204 205 206 206 206 205 206 207 208 211 215 208 202 208 214 216 219 221 225 230 228 226 230 233 235 238 238 236 234 234 237 240 242 241 238 237 235 232 229 226 222 217 214 211 205 200 196 192 190 192 191 189 188 190 188 186 191 199 200 205 212 215 219 220 219 223 230 236 244 250
197 199 201 203 202 200 199 199 199 200 201 201 202 203 203 203 203 203 202 202 204 205 206 207 211 213 205 201 206 211 214 215 216 221 229 233 233 233 233 236 238 237 236 232 230 231 233 237 239 237 235 233 230 227 224 220 214 212 212 209 206 205 199 193 191 192 192 192 193 193 192 198 205 207 210 214 215 217 219 219 220 222 224 231 243
198 201 204 204 202 201 200 199 199 200 201 201 202 202 202 201 201 200 200 201 203 205 206 207 210 210 205 203 206 209 211 213 214 217 222 228 233 235 236 239 241 240 236 232 231 230 227 227 230 230 231 231 228 224 220 217 213 211 212 210 209 212 211 206 202 198 197 195 194 198 202 205 209 210 212 216 217 217 218 220 220 220 220 222 229
200 203 204 204 203 202 201 200 199 200 201 201 202 201 201 200 199 200 201 202 203 204 205 208 210 209 206 205 207 208 209 212 213 214 216 219 226 232 234 237 240 241 237 231 229 228 224 220 220 221 224 225 224 221 216 212 209 209 209 208 208 211 213 214 215 214 212 207 203 206 210 211 213 217 221 221 218 213 212 216 220 220 221 224 229
203 206 205 204 204 203 201 201 201 202 202 201 201 200 200 200 199 200 201 201 203 205 206 208 210 210 207 205 206 207 208 210 210 210 211 213 220 228 230 232 237 240 238 232 228 227 223 218 214 213 214 215 216 217 213 208 204 204 205 206 208 210 211 213 216 220 222 221 218 220 221 221 223 228 229 224 222 220 218 220 223 222 223 227 231
203 206 206 205 205 202 201 201 202 203 202 200 200 200 201 201 200 200 202 204 206 208 208 209 211 212 209 206 206 206 206 206 207 207 209 212 217 223 226 229 234 236 236 234 230 228 225 221 216 212 209 209 212 214 213 208 205 204 205 206 208 210 212 214 216 218 220 223 228 233 234 233 234 236 235 231 229 230 230 231 231 228 225 226 228
204 205 205 205 206 204 203 203 203 203 201 198 199 200 201 202 201 201 203 205 207 209 210 212 213 213 210 206 206 207 204 203 204 205 207 211 216 221 223 226 229 232 234 233 230 229 227 223 220 216 213 211 211 212 213 211 208 207 207 207 209 211 213 215 218 220 222 227 232 236 237 236 236 237 238 234 228 225 224 224 223 219 213 210 217
208 207 207 207 206 205 205 204 204 203 200 198 199 201 203 203 202 202 203 203 206 208 211 213 215 215 213 209 208 207 202 201 203 203 203 207 215 221 221 222 225 228 232 233 230 228 227 225 224 221 219 217 215 214 215 214 212 211 210 209 210 213 216 217 218 221 225 228 231 231 230 229 227 229 232 231 226 222 214 206 203 201 196 194 207
216 213 213 212 209 208 208 207 205 202 200 200 202 203 203 204 204 204 205 205 208 210 211 212 214 216 216 214 213 210 205 200 201 202 201 205 214 220 220 220 222 224 227 230 230 228 227 226 226 225 223 222 220 218 217 216 215 215 213 210 210 213 216 216 216 218 220 221 223 224 225 225 222 222 227 229 230 227 220 213 209 201 194 197 205
229 224 224 221 216 212 210 209 207 204 203 204 205 205 205 205 206 207 207 209 210 210 211 212 214 217 218 217 216 215 211 203 199 201 202 204 212 219 220 218 219 221 222 223 224 226 226 225 224 225 227 226 222 219 218 216 216 216 214 209 209 214 217 214 214 215 214 215 216 217 218 220 220 221 225 229 232 233 232 229 221 209 205 208 205
256 243 235 228 222 217 213 211 210 208 208 208 208 207 207 206 206 207 208 209 210 211 212 213 216 218 219 218 216 216 215 207 201 201 203 205 210 216 217 216 215 216 218 218 218 219 221 223 223 223 224 225 224 221 219 217 215 215 213 211 213 218 219 216 215 216 216 215 215 216 217 219 220 222 223 225 227 228 228 228 226 222 219 216 208
293 271 251 237 227 221 217 214 214 214 214 213 210 208 208 207 208 208 208 207 208 210 213 215 217 220 221 220 218 217 217 213 205 202 203 205 208 214 216 216 215 215 214 215 216 216 216 218 220 220 221 223 223 221 218 216 215 215 216 217 221 225 223 219 217 217 217 218 217 217 217 218 219 221 222 223 224 223 220 221 223 225 225 223 217
317 298 274 251 235 227 222 219 218 218 218 216 213 209 208 208 209 208 206 205 205 208 211 213 216 219 221 222 220 218 218 216 210 206 205 205 206 211 215 216 216 215 212 210 213 216 217 218 218 217 217 218 218 218 217 214 214 216 219 221 224 226 225 221 217 214 214 215 215 212 212 213 214 216 218 220 221 220 218 218 219 221 226 230 229
326 311 289 266 247 237 229 225 223 221 219 218 215 212 209 207 207 206 205 204 204 206 209 211 212 216 219 222 222 220 218 216 213 209 207 206 207 210 214 217 216 215 214 212 212 214 216 218 217 214 213 213 213 213 213 212 214 216 218 219 220 222 222 218 213 209 208 208 208 207 208 209 210 211 214 217 219 218 218 217 217 219 221 225 228
322 315 300 276 256 245 236 231 226 223 221 218 215 212 209 206 205 205 205 203 202 204 207 207 207 210 215 218 220 220 217 215 214 211 207 208 209 210 213 216 216 217 217 218 218 217 216 216 215 212 210 210 209 208 209 211 213 214 214 214 215 216 214 209 204 201 200 200 201 203 204 205 208 212 215 217 217 215 214 214 215 218 219 220 223
319 316 310 289 267 251 239 233 229 224 221 218 213 209 207 204 202 202 202 201 200 202 204 205 206 209 212 214 216 217 215 213 213 211 208 208 210 211 212 214 215 216 218 218 219 219 218 216 212 208 207 206 204 203 203 206 208 208 208 207 207 206 203 200 197 196 196 198 200 203 206 208 212 217 219 219 217 213 212 213 214 215 215 216 217
321 318 316 303 282 259 241 233 229 225 222 219 216 212 208 205 202 200 199 199 200 202 203 204 207 210 213 215 215 213 211 210 210 210 208 208 209 211 212 213 214 216 218 218 217 215 215 212 206 201 199 199 198 197 196 196 198 199 198 198 198 199 200 199 199 199 200 202 205 210 213 214 215 217 220 222 220 216 215 214 212 211 211 211 209
327 320 319 314 296 264 243 233 227 223 220 218 216 214 211 208 203 199 198 197 197 201 203 204 205 208 213 216 214 209 207 208 208 207 205 206 208 209 209 210 210 211 212 213 211 207 203 201 198 195 193 191 192 192 190 189 190 191 192 194 197 200 203 206 208 209 210 212 213 215 215 212 211 215 218 217 216 216 217 217 213 208 205 204 200
333 322 318 317 305 276 250 235 225 220 218 216 213 212 211 209 206 205 204 201 199 200 202 204 206 208 211 211 207 203 203 207 209 209 207 205 204 204 205 206 206 205 205 203 201 199 196 192 189 189 188 186 186 186 186 187 189 192 195 197 200 202 205 208 210 211 213 214 212 209 206 204 208 213 214 210 208 210 213 214 212 208 203 199 195
335 327 321 316 309 293 266 243 229 220 216 216 216 215 215 214 213 214 214 212 209 207 205 206 210 212 213 210 203 197 201 212 217 216 211 206 202 201 202 202 202 201 201 198 191 187 185 184 183 183 185 186 186 186 188 190 193 196 199 201 202 205 206 206 204 204 206 206 203 201 200 201 205 208 207 203 203 204 206 208 208 205 200 197 198
331 330 326 320 314 305 281 255 239 225 217 215 216 218 220 221 220 220 221 221 220 218 216 216 218 218 218 217 213 208 211 219 222 218 212 208 206 203 202 201 199 197 197 194 188 182 180 181 183 186 187 188 189 191 194 196 199 202 204 204 204 205 205 204 201 200 203 202 198 198 199 198 199 199 197 195 194 195 198 204 207 204 199 198 200
326 327 328 322 318 313 294 267 248 233 222 217 214 214 218 222 224 225 226 227 227 225 224 226 227 226 224 223 222 219 220 224 226 221 215 211 207 204 203 201 198 197 194 189 185 184 184 185 189 192 194 195 197 198 200 202 204 205 204 203 203 203 204 203 200 198 199 198 196 197 199 200 199 196 192 190 192 192 194 200 205 206 205 204 205
322 318 322 322 320 315 301 276 254 239 227 217 213 211 210 213 220 225 228 230 231 230 227 227 229 231 231 229 226 223 223 224 227 228 222 214 208 206 204 202 200 197 194 190 189 192 194 194 197 199 200 202 203 203 203 204 205 203 200 198 199 200 202 203 201 197 196 196 196 197 199 201 202 201 199 198 198 196 196 200 205 207 207 207 209
326 313 317 322 321 317 305 283 256 242 231 218 211 207 203 202 208 214 220 226 231 233 232 230 230 232 232 231 229 228 227 226 226 228 224 213 207 204 202 203 203 199 195 193 196 199 199 199 200 200 200 201 200 199 198 200 200 199 197 196 197 199 201 202 201 198 199 199 199 199 200 202 203 202 201 202 202 201 201 204 207 207 206 206 206
332 316 317 322 321 318 311 293 265 249 240 229 218 209 205 205 204 200 201 209 219 225 227 227 228 229 228 228 228 228 228 226 224 224 221 209 202 198 195 196 198 198 197 196 198 199 198 198 199 198 197 198 196 194 195 196 196 197 197 197 197 198 199 201 201 201 202 203 203 202 202 202 202 200 197 197 199 201 203 205 206 205 205 205 204
337 326 322 325 326 325 320 306 280 258 246 237 228 219 213 208 204 200 197 199 204 210 213 216 219 221 223 225 225 225 226 224 223 221 215 203 195 191 186 183 185 191 195 198 200 201 199 198 198 198 197 197 196 195 194 195 196 196 196 195 195 196 196 199 201 202 203 204 204 203 202 201 202 203 201 199 198 198 200 205 209 210 210 208 204
338 334 324 324 327 327 325 317 296 268 249 241 236 229 221 212 206 204 204 204 204 205 206 208 211 214 218 221 223 222 222 220 217 214 208 198 189 184 182 183 186 191 195 198 201 202 201 200 200 198 197 197 196 195 195 195 197 198 197 195 194 194 195 198 200 202 204 205 206 205 204 203 202 202 201 201 201 202 206 210 214 215 213 210 205
332 331 323 322 323 323 323 321 309 286 259 244 237 230 223 216 210 205 203 203 203 202 199 198 198 200 205 211 213 213 213 213 210 207 200 193 188 186 187 189 192 194 197 200 200 200 200 199 198 197 196 195 195 195 196 198 199 199 198 197 196 196 198 201 203 205 206 207 207 206 205 205 205 204 202 200 201 204 210 214 215 216 215 212 207
326 324 325 325 321 319 320 320 314 301 274 250 237 228 221 215 209 203 200 199 198 196 192 191 191 191 194 197 200 201 198 194 191 191 189 187 187 189 192 195 196 198 200 201 199 198 197 196 195 194 194 193 193 193 195 198 200 200 199 199 200 202 204 206 207 208 209 209 209 209 208 207 207 207 206 204 204 206 211 214 215 214 213 210 206
326 328 333 332 323 319 320 319 316 307 285 256 237 226 220 214 207 202 198 195 194 192 189 188 191 194 193 191 189 187 184 180 178 179 181 185 189 193 195 198 199 201 202 201 199 198 196 193 193 193 193 192 192 193 196 199 201 200 200 200 200 202 204 205 206 208 210 211 211 210 209 208 208 209 210 209 209 210 212 214 215 215 213 210 208
322 325 331 331 325 319 316 315 315 308 288 262 240 226 219 215 209 203 197 193 192 192 189 188 192 195 194 191 186 182 180 179 179 179 181 186 190 192 195 197 199 200 200 199 197 196 194 192 191 192 193 194 195 197 201 203 202 201 201 202 202 202 204 206 207 208 210 212 212 210 208 207 207 208 208 208 210 214 216 216 217 217 216 214 212
321 319 320 323 324 319 313 311 313 308 291 269 248 231 223 219 213 207 202 197 195 192 191 192 194 196 195 194 191 187 183 182 182 183 185 188 190 191 194 197 198 198 197 196 195 194 193 192 191 192 193 195 197 201 204 206 206 206 205 205 206 207 209 210 211 211 211 212 211 209 207 205 204 205 207 209 213 216 218 218 218 217 217 215 213
322 315 312 314 316 313 308 307 309 308 299 278 255 240 231 224 217 211 206 202 197 192 190 191 192 193 193 194 192 189 187 185 184 184 186 188 190 192 195 197 198 198 197 196 195 194 192 192 192 192 194 196 199 204 206 207 209 209 208 208 211 213 213 212 211 211 212 212 210 208 206 206 207 209 212 213 213 214 215 216 216 216 214 212 210
318 311 307 308 307 303 300 300 302 304 300 283 261 247 237 227 219 214 209 204 199 192 187 186 185 184 185 187 188 186 185 184 183 182 184 186 189 192 195 198 199 198 198 198 198 196 194 194 194 196 199 202 206 209 210 211 211 210 209 211 215 215 212 210 209 209 209 209 209 208 208 210 212 214 214 213 212 211 212 213 212 212 211 209 208
319 314 311 308 303 297 294 296 300 302 298 285 267 252 239 229 221 215 209 204 199 194 189 186 183 179 177 180 182 182 181 180 180 180 182 185 188 192 195 197 198 198 198 199 199 198 197 197 199 201 205 209 212 214 215 215 214 213 213 216 218 216 212 209 209 210 210 210 209 210 211 212 214 214 212 211 210 209 209 209 208 207 206 205 204
324 316 309 303 298 296 295 296 301 304 301 288 268 251 239 229 222 215 209 203 198 195 192 190 186 181 179 179 180 180 179 179 180 182 183 185 187 190 193 195 196 196 196 197 198 199 199 201 202 202 204 207 210 213 215 216 217 219 222 222 220 219 217 214 213 215 216 215 214 213 212 213 214 213 212 211 210 209 208 207 206 205 203 202 202
330 321 312 306 303 303 304 304 304 305 300 286 266 249 237 227 221 216 210 204 198 195 194 193 189 185 183 182 183 183 182 181 182 184 185 184 185 187 189 191 192 193 195 196 198 199 202 205 207 207 207 208 209 212 216 218 220 224 227 225 222 223 225 224 222 223 223 221 218 217 216 216 216 215 214 213 212 211 209 208 206 205 204 204 204
342 338 333 326 319 316 318 322 320 309 295 282 266 251 237 226 219 215 210 205 200 196 194 192 190 188 186 184 184 184 182 181 182 182 182 182 182 184 186 188 188 190 195 198 201 204 207 210 211 211 212 213 214 215 218 220 219 220 224 226 225 224 224 226 228 230 229 226 223 221 220 219 217 216 216 214 211 210 208 206 206 206 206 205 205
357 356 353 348 343 339 338 340 340 331 310 285 267 252 239 228 219 212 208 204 200 195 191 189 188 187 185 184 184 182 179 177 176 176 177 179 180 182 186 188 190 192 195 197 200 203 204 205 208 213 216 217 217 218 219 220 218 216 219 223 225 222 219 222 228 232 232 229 226 224 223 222 219 218 216 213 210 209 207 205 205 205 205 205 204
10 10 7 4 1 359 356 354 353 353 347 323 286 261 241 226 216 209 203 199 196 192 187 183 181 181 181 180 179 178 175 172 170 170 172 174 176 179 183 188 192 196 198 198 199 200 201 203 209 213 215 214 213 214 216 218 220 219 219 220 221 220 219 223 230 233 233 231 229 226 224 223 222 221 218 215 212 209 207 205 204 203 202 202 201
19 19 18 17 14 12 11 11 10 10 12 12 358 329 266 213 200 195 190 186 182 180 176 172 168 168 170 170 170 169 168 166 165 166 169 172 176 181 184 185 186 189 190 191 192 193 194 197 199 200 201 204 207 209 210 212 216 219 219 218 218 220 223 226 230 232 233 233 231 228 225 224 222 221 219 216 212 209 207 205 204 202 202 201 199
26 28 27 25 24 23 23 24 24 25 30 38 39 33 33 54 105 137 150 152 150 147 146 144 145 147 148 151 153 155 154 154 156 159 162 166 171 175 177 176 175 175 175 176 178 180 182 186 188 190 194 199 202 203 205 209 213 217 218 216 216 218 221 222 222 224 228 232 232 229 227 224 222 220 218 215 212 209 207 205 204 203 202 201 199